When you browse on this site, cookies collect data to enhance your experience and personalize the content and advertising you see.
Visit our Privacy Policy to learn more. By continuing to use the site, you agree to this use of cookies and data.
  • Em Portugal
  • Lista de países
  • Para 7 dias
  • Temperatura da água
  • Mapas de satélite
  • Mapa do tempo
  • Widgets de tempo
  • user-avatar
    Iniciar Sessão

    Previsão horária em Pert

    Hoje, 16 Dezembro, Domingo

    Tempo Temperatura Precipitação Vento Pressão Humidade
    00:00 +22°C° 0 mm 5 m/s 750 mmHg 53%
    01:00 +21°C° 0 mm 5 m/s 750 mmHg 52%
    02:00 +21°C° 0 mm 5 m/s 750 mmHg 53%
    03:00 +20°C° 0 mm 5 m/s 750 mmHg 53%
    04:00 +20°C° 0 mm 5 m/s 750 mmHg 53%
    05:00 +20°C° 0 mm 5 m/s 750 mmHg 53%
    06:00 +21°C° 0 mm 6 m/s 751 mmHg 49%
    07:00 +23°C° 0 mm 6 m/s 751 mmHg 45%
    08:00 +24°C° 0 mm 7 m/s 752 mmHg 43%
    09:00 +26°C° 0.1 mm 7 m/s 752 mmHg 41%
    10:00 +27°C° 0.1 mm 7 m/s 752 mmHg 38%
    11:00 +28°C° 0.1 mm 7 m/s 751 mmHg 36%
    12:00 +29°C° 0.1 mm 7 m/s 751 mmHg 35%
    13:00 +31°C° 0.1 mm 8 m/s 751 mmHg 33%
    14:00 +28°C° 0 mm 9 m/s 751 mmHg 37%
    15:00 +29°C° 0 mm 9 m/s 751 mmHg 37%
    16:00 +29°C° 0 mm 8 m/s 751 mmHg 37%
    17:00 +31°C° 0 mm 8 m/s 751 mmHg 37%
    18:00 +28°C° 0 mm 8 m/s 752 mmHg 41%
    19:00 +26°C° 0 mm 7 m/s 752 mmHg 45%
    20:00 +24°C° 0 mm 7 m/s 753 mmHg 50%
    21:00 +23°C° 0 mm 7 m/s 753 mmHg 54%
    22:00 +22°C° 0 mm 7 m/s 754 mmHg 58%
    23:00 +21°C° 0 mm 7 m/s 755 mmHg 61%

    Amanhã, 17 Dezembro, Segunda-feira

    Tempo Temperatura Precipitação Vento Pressão Humidade
    00:00 +20°C° 0 mm 6 m/s 755 mmHg 63%
    01:00 +19°C° 0 mm 6 m/s 755 mmHg 65%
    02:00 +17°C° 0 mm 6 m/s 755 mmHg 67%
    03:00 +17°C° 0 mm 5 m/s 755 mmHg 68%
    04:00 +17°C° 0 mm 5 m/s 756 mmHg 68%
    05:00 +17°C° 0 mm 5 m/s 756 mmHg 69%
    06:00 +19°C° 0 mm 5 m/s 756 mmHg 65%
    07:00 +20°C° 0 mm 6 m/s 757 mmHg 62%
    08:00 +21°C° 0 mm 6 m/s 757 mmHg 58%
    09:00 +22°C° 0 mm 6 m/s 757 mmHg 56%
    10:00 +22°C° 0 mm 6 m/s 758 mmHg 55%
    11:00 +23°C° 0 mm 6 m/s 758 mmHg 53%
    12:00 +23°C° 0 mm 6 m/s 758 mmHg 51%
    13:00 +24°C° 0 mm 6 m/s 758 mmHg 49%
    14:00 +26°C° 0 mm 6 m/s 758 mmHg 47%
    15:00 +26°C° 0 mm 6 m/s 757 mmHg 47%
    16:00 +26°C° 0 mm 6 m/s 757 mmHg 46%
    17:00 +26°C° 0 mm 6 m/s 757 mmHg 46%
    18:00 +25°C° 0 mm 5 m/s 758 mmHg 49%
    19:00 +22°C° 0 mm 5 m/s 758 mmHg 53%
    20:00 +21°C° 0 mm 4 m/s 759 mmHg 56%
    21:00 +21°C° 0 mm 4 m/s 759 mmHg 58%
    22:00 +20°C° 0 mm 4 m/s 759 mmHg 61%
    23:00 +19°C° 0 mm 4 m/s 759 mmHg 63%

    Depois de amanhã, 18 Dezembro, Terça-feira

    Tempo Temperatura Precipitação Vento Pressão Humidade
    00:00 +19°C° 0 mm 4 m/s 759 mmHg 65%
    01:00 +18°C° 0 mm 4 m/s 759 mmHg 68%
    02:00 +17°C° 0 mm 4 m/s 759 mmHg 71%
    03:00 +17°C° 0 mm 4 m/s 759 mmHg 74%
    04:00 +15°C° 0 mm 4 m/s 760 mmHg 77%
    05:00 +16°C° 0 mm 3 m/s 760 mmHg 80%
    06:00 +17°C° 0 mm 3 m/s 760 mmHg 72%
    07:00 +19°C° 0 mm 4 m/s 760 mmHg 65%
    08:00 +21°C° 0 mm 4 m/s 761 mmHg 57%
    09:00 +23°C° 0 mm 4 m/s 761 mmHg 51%
    10:00 +26°C° 0 mm 4 m/s 761 mmHg 44%
    11:00 +27°C° 0 mm 4 m/s 761 mmHg 38%
    12:00 +28°C° 0 mm 4 m/s 760 mmHg 37%
    13:00 +29°C° 0 mm 5 m/s 760 mmHg 35%
    14:00 +30°C° 0 mm 6 m/s 760 mmHg 34%
    15:00 +29°C° 0 mm 6 m/s 759 mmHg 36%
    16:00 +29°C° 0 mm 6 m/s 759 mmHg 38%
    17:00 +28°C° 0 mm 7 m/s 759 mmHg 40%
    18:00 +26°C° 0 mm 6 m/s 760 mmHg 45%
    19:00 +24°C° 0 mm 6 m/s 760 mmHg 49%
    20:00 +22°C° 0 mm 6 m/s 760 mmHg 54%
    21:00 +22°C° 0 mm 5 m/s 761 mmHg 55%
    22:00 +21°C° 0 mm 5 m/s 761 mmHg 55%
    23:00 +21°C° 0 mm 4 m/s 761 mmHg 55%

    19 Dezembro, Quarta-feira

    Tempo Temperatura Precipitação Vento Pressão Humidade
    00:00 +20°C° 0 mm 4 m/s 761 mmHg 57%
    01:00 +20°C° 0 mm 4 m/s 761 mmHg 59%
    02:00 +19°C° 0 mm 4 m/s 761 mmHg 61%
    03:00 +19°C° 0 mm 4 m/s 761 mmHg 63%
    04:00 +18°C° 0 mm 4 m/s 761 mmHg 66%
    05:00 +17°C° 0 mm 5 m/s 761 mmHg 68%
    06:00 +19°C° 0 mm 4 m/s 762 mmHg 63%
    07:00 +20°C° 0 mm 4 m/s 762 mmHg 57%
    08:00 +22°C° 0 mm 4 m/s 763 mmHg 52%
    09:00 +25°C° 0 mm 4 m/s 762 mmHg 44%
    10:00 +27°C° 0 mm 3 m/s 762 mmHg 36%
    11:00 +29°C° 0 mm 3 m/s 762 mmHg 29%
    12:00 +30°C° 0 mm 4 m/s 762 mmHg 28%
    13:00 +32°C° 0 mm 4 m/s 761 mmHg 26%
    14:00 +33°C° 0 mm 5 m/s 760 mmHg 25%
    15:00 +32°C° 0 mm 5 m/s 760 mmHg 27%
    16:00 +30°C° 0 mm 6 m/s 760 mmHg 28%
    17:00 +30°C° 0 mm 6 m/s 759 mmHg 30%
    18:00 +28°C° 0 mm 6 m/s 760 mmHg 37%
    19:00 +26°C° 0 mm 5 m/s 760 mmHg 44%
    20:00 +23°C° 0 mm 5 m/s 761 mmHg 51%
    21:00 +22°C° 0 mm 5 m/s 761 mmHg 51%
    22:00 +22°C° 0 mm 5 m/s 761 mmHg 51%
    23:00 +22°C° 0 mm 5 m/s 761 mmHg 51%

    20 Dezembro, Quinta-feira

    Tempo Temperatura Precipitação Vento Pressão Humidade
    00:00 +21°C° 0 mm 5 m/s 761 mmHg 51%
    01:00 +21°C° 0 mm 5 m/s 761 mmHg 51%
    02:00 +21°C° 0 mm 6 m/s 761 mmHg 52%
    03:00 +20°C° 0 mm 6 m/s 761 mmHg 54%
    04:00 +20°C° 0 mm 6 m/s 761 mmHg 57%
    05:00 +19°C° 0 mm 6 m/s 761 mmHg 59%
    06:00 +21°C° 0 mm 6 m/s 761 mmHg 55%
    07:00 +22°C° 0 mm 5 m/s 762 mmHg 51%
    08:00 +23°C° 0 mm 5 m/s 762 mmHg 47%
    09:00 +27°C° 0 mm 5 m/s 762 mmHg 41%
    10:00 +29°C° 0 mm 5 m/s 761 mmHg 35%
    11:00 +32°C° 0 mm 4 m/s 761 mmHg 29%
    12:00 +34°C° 0 mm 4 m/s 760 mmHg 26%
    13:00 +35°C° 0 mm 4 m/s 760 mmHg 23%
    14:00 +36°C° 0 mm 4 m/s 759 mmHg 21%
    15:00 +36°C° 0 mm 5 m/s 759 mmHg 21%
    16:00 +35°C° 0 mm 5 m/s 758 mmHg 22%
    17:00 +35°C° 0 mm 6 m/s 758 mmHg 23%
    18:00 +33°C° 0 mm 6 m/s 758 mmHg 26%
    19:00 +30°C° 0 mm 5 m/s 758 mmHg 30%
    20:00 +28°C° 0 mm 5 m/s 759 mmHg 33%
    21:00 +27°C° 0 mm 6 m/s 759 mmHg 33%
    22:00 +27°C° 0 mm 6 m/s 759 mmHg 34%
    23:00 +26°C° 0 mm 7 m/s 759 mmHg 35%

    21 Dezembro, Sexta-feira

    Tempo Temperatura Precipitação Vento Pressão Humidade
    00:00 +24°C° 0 mm 7 m/s 759 mmHg 39%
    01:00 +23°C° 0 mm 7 m/s 759 mmHg 44%
    02:00 +21°C° 0 mm 7 m/s 759 mmHg 49%
    03:00 +21°C° 0 mm 7 m/s 759 mmHg 50%
    04:00 +21°C° 0 mm 7 m/s 759 mmHg 51%
    05:00 +20°C° 0 mm 7 m/s 759 mmHg 51%
    06:00 +22°C° 0 mm 6 m/s 760 mmHg 48%
    07:00 +23°C° 0 mm 6 m/s 760 mmHg 45%
    08:00 +26°C° 0 mm 6 m/s 760 mmHg 42%
    09:00 +28°C° 0 mm 6 m/s 760 mmHg 37%
    10:00 +32°C° 0 mm 5 m/s 759 mmHg 32%
    11:00 +34°C° 0 mm 4 m/s 759 mmHg 27%
    12:00 +36°C° 0 mm 4 m/s 758 mmHg 25%
    13:00 +38°C° 0 mm 4 m/s 758 mmHg 22%
    14:00 +41°C° 0 mm 4 m/s 757 mmHg 19%
    15:00 +40°C° 0 mm 4 m/s 757 mmHg 20%
    16:00 +40°C° 0 mm 5 m/s 757 mmHg 20%
    17:00 +39°C° 0 mm 6 m/s 757 mmHg 21%
    18:00 +36°C° 0 mm 5 m/s 757 mmHg 22%
    19:00 +34°C° 0 mm 5 m/s 757 mmHg 24%
    20:00 +33°C° 0 mm 5 m/s 758 mmHg 26%
    21:00 +32°C° 0 mm 5 m/s 758 mmHg 27%
    22:00 +30°C° 0 mm 5 m/s 758 mmHg 28%
    23:00 +30°C° 0 mm 5 m/s 758 mmHg 28%
    Mostrar mais